Simultaneous Nadir Overpasses (SNOs) Predictions

Prediction of SNOs between AQUA and NOAA-19 Satellite Orbit:

Table of predicted SNOs for the next 14.0 days since TLE Epoch: 7/17/2015
Index Date (AQUA) Time (AQUA) Lat,Lon (AQUA) SZA (AQUA ) Date (NOAA-19) Time (NOAA-19) Lat,Lon (NOAA-19) SZA (NOAA-19 ) Distance(km) Time Diff (sec)
1 07/18/2015 07:00:38 80.15, 43.24 60.76 07/18/2015 07:00:41 80.14, 43.39 60.74 2.82 3
2 07/20/2015 11:44:55 80.21, -28.43 61.28 07/20/2015 11:44:03 80.21, -28.34 61.29 1.86 52
3 07/20/2015 12:34:19 -80.14, 139.82 118.84 07/20/2015 12:35:02 -80.14, 139.85 118.86 0.95 43
4 07/22/2015 17:18:36 -80.22, 68.11 118.29 07/22/2015 17:18:25 -80.22, 67.99 118.27 2.30 11
5 07/24/2015 22:02:52 -80.26, -3.38 117.76 07/24/2015 22:01:46 -80.26, -3.29 117.75 1.83 66
6 07/24/2015 22:52:16 80.17, 165.08 62.10 07/24/2015 22:52:42 80.18, 165.03 62.10 1.18 26
7 07/27/2015 03:36:32 80.23, 93.50 62.67 07/27/2015 03:36:03 80.23, 93.53 62.68 0.52 29
8 07/27/2015 04:25:55 -80.12, -97.86 117.51 07/27/2015 04:27:02 -80.11, -97.71 117.56 2.88 67




NCC Satellite Simultaneous Nadir Overpasses (SNOs) Prediction Service
